Location: Nassau
(25.0830°N, 77.3500°W)
Time: 11:19:22
(UTC-04:00)

ISS - All Passes

Search period start: 29 May 2016 00:00
Search period end: 08 June 2016 00:00
Orbit: 402 x 404 km, 51.6° (Epoch: 29 May)

Date Brightness Start Highest point End Pass type
(mag) Time Alt. Az. Time Alt. Az. Time Alt. Az.
29 May - 05:28:03 10° NW 05:31:15 62° SW 05:34:28 10° SSE visible
29 May - 18:51:18 10° SE 18:51:59 10° SE 18:52:40 10° ESE daylight
29 May - 20:25:06 10° WSW 20:28:06 34° NW 20:31:08 10° NNE visible
30 May - 04:35:21 10° NNW 04:38:30 47° NE 04:41:38 10° ESE visible
30 May - 19:32:04 10° SW 19:35:19 89° ESE 19:38:34 10° NE daylight
31 May - 03:43:06 10° N 03:45:38 21° NE 03:48:09 10° E night (unlit)
31 May - 05:19:35 10° W 05:21:55 18° SW 05:24:15 10° S visible
31 May - 18:39:37 10° SSW 18:42:35 32° SE 18:45:32 10° ENE daylight
31 May - 20:17:23 10° WNW 20:19:03 13° NW 20:20:44 10° N visible
01 Jun - 02:52:05 10° NNE 02:52:39 10° NE 02:53:11 10° NE night (unlit)
01 Jun - 04:26:06 10° NW 04:29:14 46° SW 04:32:21 10° SSE night (unlit)
01 Jun - 17:48:11 10° SSE 17:49:54 14° SE 17:51:37 10° E daylight
01 Jun - 19:23:16 10° WSW 19:26:06 27° NW 19:28:56 10° NNE daylight
02 Jun - 03:33:13 10° NW 03:36:27 63° NE 03:39:40 10° SE night (unlit)
02 Jun - 18:30:00 10° SW 18:33:14 68° NW 18:36:29 10° NE daylight
03 Jun - 02:40:48 10° NNW 02:43:35 25° NE 02:46:20 10° ESE night (unlit)
03 Jun - 04:17:56 10° W 04:19:47 14° SW 04:21:39 10° SSW night (unlit)
03 Jun - 17:37:21 10° SSW 17:40:26 42° SE 17:43:32 10° NE daylight
03 Jun - 19:16:04 10° NW 19:17:00 11° NW 19:17:56 10° NNW daylight
04 Jun - 01:49:04 10° NNE 01:50:35 13° NE 01:52:05 10° ENE night (unlit)
04 Jun - 03:24:05 10° WNW 03:27:05 34° SW 03:30:03 10° SSE night (unlit)
04 Jun - 16:45:28 10° S 16:47:42 17° SE 16:49:56 10° E daylight
04 Jun - 18:21:22 10° W 18:23:58 22° NW 18:26:35 10° N daylight
05 Jun - 02:31:02 10° NW 02:34:17 85° NE 02:37:31 10° SE night (unlit)
05 Jun - 17:27:53 10° SW 17:31:02 51° NW 17:34:13 10° NNE daylight
06 Jun - 01:38:26 10° NNW 01:41:24 32° NE 01:44:21 10° ESE night (unlit)
06 Jun - 03:16:28 10° WSW 03:17:32 11° SW 03:18:36 10° SW night (unlit)
06 Jun - 16:35:00 10° SSW 16:38:12 57° SE 16:41:24 10° NE daylight
07 Jun - 00:46:22 10° N 00:48:24 15° NE 00:50:25 10° E night (unlit)
07 Jun - 02:22:00 10° WNW 02:24:48 26° SW 02:27:35 10° S night (unlit)
07 Jun - 15:42:48 10° S 15:45:24 22° SE 15:48:00 10° ENE daylight
07 Jun - 17:19:25 10° W 17:21:44 18° NW 17:24:04 10° N daylight
